Location: Binzen
(47.8658°N, 9.7968°E)
Time: 12:18:15
(UTC+00:00)

Daily predictions for brighter satellites

Satellite Brightness Start Highest point End
(mag) Time Altitude Azimuth Time Altitude Azimuth Time Altitude Azimuth
NOSS 3-3 (A) 4.1 17:01:54 10° S 17:06:40 41° ESE 17:12:14 10° NE
NOSS 0 Rocket 4.2 17:02:03 10° NNW 17:08:08 50° NE 17:14:11 10° SE
Cosmos 2061 Rocket 4.3 17:03:23 10° N 17:09:33 47° ENE 17:15:36 10° SSE
Thor Agena Rocket 4.1 17:04:44 10° S 17:09:45 64° WSW 17:14:53 10° NNW
Cosmos 2173 Rocket 4.4 17:04:42 10° NNW 17:10:59 73° W 17:17:08 10° S
SL-16 R/B 3.6 17:05:50 10° N 17:11:44 48° WNW 17:17:38 10° SW
Cosmos 2151 Rocket 3.8 17:08:13 10° N 17:12:36 50° ENE 17:16:58 10° SSE
CZ-4C R/B 1.9 17:10:09 10° SSW 17:14:08 50° ESE 17:19:09 10° NE
COSMOS 2428 2.7 17:10:11 10° NNW 17:15:55 67° ENE 17:21:36 10° SE
Cosmos 1980 4.3 17:11:58 10° NNW 17:17:10 36° NE 17:22:20 10° ESE
CZ-2D R/B 3.2 17:15:33 10° S 17:18:35 64° WSW 17:21:38 10° NNW
Cosmos 1607 4.0 17:13:50 10° SSW 17:19:53 68° ESE 17:26:02 10° NE
Cosmos 2292 Rocket 2.9 17:19:37 10° SSW 17:22:28 70° W 17:25:31 10° N
Cosmos 2237 Rocket 2.8 17:17:28 10° NNW 17:22:42 36° NE 17:27:55 10° ESE
NOSS 3-4 (A) 4.3 17:18:48 10° NW 17:24:53 40° NE 17:31:57 10° ESE
NOSS 3-4 (C) 4.3 17:19:03 10° NW 17:25:09 40° NE 17:32:13 10° ESE
Cosmos 1455 Rocket 4.0 17:25:10 10° NNE 17:28:44 25° ENE 17:32:18 10° SE
IRS-P3 4.3 17:24:45 10° SSE 17:30:04 82° WSW 17:35:27 10° NNW
Cosmos 2219 Rocket 4.0 17:25:41 10° NW 17:30:45 36° WSW 17:35:47 10° S
SPOT 1/Viking Rocket 3.7 17:25:50 10° S 17:30:56 79° WSW 17:36:06 10° NNW
YAOGAN 1 2.5 17:29:00 10° SSE 17:33:13 68° ENE 17:37:27 10° N
Cosmos 2221 Rocket 3.8 17:34:57 10° SSE 17:39:14 50° E 17:43:36 10° NNE
Cosmos 2322 3.9 17:33:32 10° NNW 17:39:16 77° WSW 17:44:57 10° SSE
ATLAS 2AS CENTAUR R/B 4.1 17:34:32 10° W 17:40:27 29° NNW 17:46:17 10° NE
SJ-7 4.1 17:37:25 10° SSE 17:41:03 57° ENE 17:44:40 10° N
Okean 2 Rocket 3.0 17:37:08 10° N 17:41:33 75° E 17:45:54 10° SSE
SJ-6B 3.6 17:39:09 10° ESE 17:41:56 23° ENE 17:44:44 10° NNE
Okean 1 Rocket 3.0 17:37:43 10° N 17:42:07 65° ENE 17:46:27 10° SSE
Helios 1A Rocket 4.4 17:47:32 13° SE 17:47:32 13° SE 17:48:13 10° SE
SL-16 R/B 3.5 17:42:24 10° N 17:46:36 21° NE 17:48:52 17° ENE
Lacrosse 5 rocket 2.1 17:43:54 10° W 17:47:10 36° NNW 17:49:58 13° NE
USA 290 3.4 17:44:41 10° SW 17:47:45 43° WNW 17:50:50 10° N
Cosmos 2227 Rocket 3.4 17:44:34 10° SE 17:48:33 20° E 17:50:18 17° ENE
USA 306 1.7 17:47:53 10° WNW 17:50:37 55° SW 17:51:27 27° SSE
Cosmos 1867 4.3 17:45:24 10° SW 17:50:44 54° NW 17:56:06 10° NNE
COSMO-SKYMED 1 2.3 17:47:57 10° NNE 17:52:04 69° ESE 17:56:09 10° S
Sich 1 Rocket 3.6 17:48:21 10° N 17:52:56 80° E 17:57:29 10° SSE
Cosmos 2228 3.9 17:49:35 10° NNE 17:53:03 25° ENE 17:54:35 20° ESE
Cosmos 1378 Rocket 4.5 17:49:11 10° SSW 17:53:23 51° WNW 17:57:35 10° N
PSLV R/B 3.3 17:49:31 10° SSE 17:53:37 71° ENE 17:57:42 10° N
Cosmos 1315 Rocket 4.1 17:54:07 10° NNW 17:57:42 41° W 18:01:17 10° SSW
SKYMED 2 4.3 17:57:04 10° N 18:01:21 57° WNW 18:05:36 10° SSW
Meteor 1-31 Rocket 4.4 18:02:53 16° NNE 18:02:53 16° NNE 18:04:00 10° NNE
Resurs 01 Rocket 1.6 17:57:07 10° SSE 18:01:26 63° ENE 18:05:48 10° N
USA 267 3.8 17:57:08 13° NE 18:02:54 52° NNW 18:09:12 10° W
Cosmos 2346 Rocket 4.5 17:58:27 10° S 18:04:42 85° E 18:11:01 10° N
Cosmos 1025 Rocket 3.5 18:04:37 10° SSW 18:08:53 63° WNW 18:13:12 10° N
Terra 3.9 18:12:27 12° NNE 18:12:27 12° NNE 18:13:03 10° NNE
CZ-4 R/B 3.3 18:13:06 13° NNE 18:13:06 13° NNE 18:13:44 10° NNE
CZ-2D R/B 4.1 18:07:15 10° S 18:11:04 53° W 18:14:59 10° NNW
CZ-4B R/B 4.4 18:12:36 20° NE 18:12:36 20° NE 18:16:06 10° NNE
Cosmos 1570 Rocket 4.0 18:08:08 10° S 18:13:17 56° ESE 18:18:27 10° NNE
Atlas Centaur 2 4.5 18:08:42 10° SW 18:13:29 18° S 18:17:50 10° SE
Cosmos 1125 Rocket 3.8 18:11:56 10° NNW 18:17:06 68° WSW 18:22:15 10° S
Cosmos 1447 Rocket 4.5 18:12:03 10° S 18:18:11 85° W 18:24:22 10° N
Radarsat Rocket 4.4 18:15:06 10° S 18:20:53 64° WSW 18:27:05 10° NNW
Cosmos 44 Rocket 3.7 18:16:37 10° S 18:21:12 42° ESE 18:22:33 34° E
Aureole 3 Rocket 3.1 18:19:42 10° NNW 18:23:47 60° W 18:27:00 10° S
IRAS Rocket 4.2 18:19:33 10° SSE 18:25:09 83° ENE 18:30:49 10° NNW
DMSP B5D1-3 4.4 18:22:32 10° NNE 18:27:41 87° ESE 18:32:47 10° SSW
Cosmos 2285 Rocket 4.3 18:21:36 10° NNW 18:28:01 71° WSW 18:34:21 10° S
CSL-04 Debris 4.5 18:26:08 30° ESE 18:28:16 44° ENE 18:33:23 10° N
NOSS 3-3 (C) 4.0 18:23:37 10° SW 18:28:51 69° NW 18:34:05 15° NE
CSL-04 Rocket 3.8 18:29:29 30° SE 18:31:42 49° ENE 18:36:47 10° N
Cosmos 2208 Rocket 4.0 18:26:38 10° S 18:31:45 58° ESE 18:35:13 21° NE
Cosmos 2297 Rocket 2.2 18:27:13 10° SSW 18:32:53 87° WNW 18:38:32 10° NNE
Cosmos 1816 Rocket 4.4 18:33:49 10° S 18:39:47 57° E 18:45:52 10° NNE
Cosmos 2344 3.8 18:32:56 10° S 18:40:17 41° ESE 18:42:04 35° E
Cosmos 2034 Rocket 4.0 18:36:53 10° N 18:42:55 53° ENE 18:45:36 32° SE
Cosmos 773 Rocket 3.9 18:38:06 10° SSW 18:43:21 78° ESE 18:47:06 20° NNE
Cosmos 1072 Rocket 4.4 18:38:15 10° N 18:44:33 86° E 18:50:43 10° S
SPOT 5 2.7 18:53:52 63° ESE 18:54:29 72° ENE 18:59:32 10° N
PAYLOAD B 4.3 18:55:40 52° ENE 18:55:40 52° ENE 19:01:07 10° N
Orbus 7S? 3.7 18:48:25 10° NW 18:56:18 88° SW 18:56:52 69° SE
CZ-4B R/B 4.2 18:59:23 58° NNW 18:59:23 58° NNW 19:02:35 10° NNW
Cosmos 2150 Rocket 3.9 18:53:34 10° NNW 18:58:45 83° WSW 19:00:28 43° SSE
Cosmos 2298 Rocket 4.0 18:55:00 10° NNW 19:00:19 85° WSW 19:01:59 45° SSE
CZ-4C R/B 3.3 18:58:26 10° W 19:02:35 33° NNW 19:05:39 19° NNE
Cosmos 2263 Rocket 3.5 18:59:15 10° S 19:01:37 24° SSE 19:01:37 24° SSE
Cosmos 2237 Rocket 3.3 19:01:29 10° NW 19:06:50 43° WSW 19:12:10 10° S
Cosmos 1975 Rocket 3.4 19:02:40 10° SSW 19:07:00 64° WNW 19:10:20 16° N
Cosmos 1464 Rocket 4.3 19:05:48 10° NNW 19:12:07 67° W 19:18:20 10° S
DNEPR-1 R/B 4.0 19:08:50 10° NW 19:13:45 82° SW 19:14:06 76° S
NOSS 3-4 (A) 4.1 19:09:27 10° NW 19:16:12 67° SW 19:20:08 31° SSE
NOSS 3-4 (C) 4.1 19:09:43 10° NW 19:16:29 68° SW 19:20:20 32° SSE
Lacrosse 5 rocket 3.6 19:22:07 10° NW 19:23:25 16° NNW 19:23:25 16° NNW
SL-16 R/B 2.3 19:25:48 10° NNW 19:30:45 69° NNW 19:30:45 69° NNW
Cosmos 2227 Rocket 2.3 19:26:20 10° SW 19:31:58 71° WNW 19:32:13 70° NW
ATLAS 2AS CENTAUR R/B 4.3 19:28:36 10° NW 19:33:38 21° N 19:35:06 20° NNE
CZ-4 R/B 4.2 19:48:05 11° NNW 19:48:05 11° NNW 19:48:17 10° NNW
USA 267 4.0 19:44:28 39° NNE 19:45:12 40° N 19:51:12 10° WNW
Terra 4.0 19:51:04 18° NNW 19:51:04 18° NNW 19:52:14 10° NNW
CZ-4B R/B 4.3 19:54:27 37° NNW 19:54:27 37° NNW 19:57:40 10° NNW
Cosmos 2297 Rocket 4.4 20:13:38 10° W 20:17:45 20° NW 20:20:23 15° N
Cosmos 2344 4.5 20:47:08 10° WSW 20:52:09 39° W 20:52:09 39° W
